Location: Newark
(49.8969°N, 3.3422°E)
Time: 07:23:09
(UTC+00:00)

Explorer 7 - Pass Details

Date: 30 January 2020
Orbit: 485 x 679 km, 50.3° (Epoch: 21 February)

Event Time Altitude Azimuth Distance (km) Brightness Sun altitude
Rises 22:59:37 0° 268° (W) 2,570 - -55.5°
Reaches altitude 10° 23:01:49 10° 269° (W) 1,677 - -55.7°
Maximum altitude 23:05:35 83° 357° (N) 494 - -55.9°
Drops below altitude 10° 23:09:21 10° 87° (E) 1,675 - -56.1°
Sets 23:11:33 0° 88° (E) 2,567 - -56.3°
